Location: Bermeries
(50.2863°N, 3.7551°E)
Time: 13:47:05
(UTC+00:00)

SAR-Lupe-1 - Pass Details

Date: 23 May 2024
Orbit: 479 x 482 km, 98.1° (Epoch: 04 May)

Event Time Altitude Azimuth Distance (km) Brightness Sun altitude
Rises 02:31:39 0° 17° (NNE) 2,553 9.1 -9.8°
Reaches altitude 10° 02:33:45 10° 21° (NNE) 1,669 8.1 -9.6°
Maximum altitude 02:37:18 61° 102° (ESE) 553 4.5 -9.2°
Drops below altitude 10° 02:40:49 10° 184° (S) 1,655 6.3 -8.8°
Enters shadow 02:41:25 - 185° (S) 1,907 6.6 -8.7°
